Location: ??
(35.1714°N, 128.2806°E)
Time: 15:38:56
(UTC+00:00)

CZ-2C R/B - Pass Details

Date: 29 October 2020
Orbit: 667 x 785 km, 98.2° (Epoch: 01 December)

Event Time Altitude Azimuth Distance (km) Brightness Sun altitude
Rises 19:48:50 0° 5° (N) 3,177 5.8 -24.5°
Reaches altitude 10° 19:51:14 10° 359° (N) 2,231 4.9 -24.0°
Enters shadow 19:53:32 26° 345° (NNW) 1,405 3.7 -23.5°
